| time (UTC) | temp F | wind direction | speed knots | gust knots | rain 1hr in | rain 24hr in | rain mn in | humidity % | barometer mb |
| 20260503231500 | 60 | 206 | 0.0 | 0.9 | 0.00 | 0.00 | 0.00 | 37 | 1014.3 |
| 20260503224445 | 61 | 286 | 0.0 | 2.6 | 0.00 | 0.00 | 0.00 | 35 | 1014.3 |
| 20260503223445 | 61 | 284 | 0.0 | 1.7 | 0.00 | 0.00 | 0.00 | 36 | 1014.4 |
| 20260503222445 | 61 | 262 | 1.7 | 2.6 | 0.00 | 0.00 | 0.00 | 35 | 1014.3 |
| 20260503221445 | 61 | 238 | 2.6 | 3.5 | 0.00 | 0.00 | 0.00 | 34 | 1014.4 |
| 20260503220351 | 61 | 215 | 2.6 | 2.6 | 0.00 | 0.00 | 0.00 | 34 | 1014.4 |
| 20260503215351 | 61 | 267 | 1.7 | 7.8 | 0.00 | 0.00 | 0.00 | 37 | 1014.4 |
| 20260503214351 | 62 | 250 | 1.7 | 2.6 | 0.00 | 0.00 | 0.00 | 35 | 1014.4 |
| 20260503213351 | 62 | 306 | 1.7 | 2.6 | 0.00 | 0.00 | 0.00 | 35 | 1014.4 |
| 20260503212351 | 62 | 211 | 0.0 | 6.1 | 0.00 | 0.00 | 0.00 | 34 | 1014.4 |
| 20260503211351 | 62 | 309 | 2.6 | 6.1 | 0.00 | 0.00 | 0.00 | 34 | 1014.2 |
| 20260503210351 | 62 | 302 | 0.9 | 2.6 | 0.00 | 0.00 | 0.00 | 36 | 1014.2 |
| 20260503204351 | 62 | 281 | 2.6 | 2.6 | 0.00 | 0.00 | 0.00 | 36 | 1014.1 |
| 20260503203351 | 62 | 290 | 0.9 | 3.5 | 0.00 | 0.00 | 0.00 | 34 | 1014.3 |
| 20260503202351 | 63 | 228 | 1.7 | 6.1 | 0.00 | 0.00 | 0.00 | 34 | 1014.4 |
| 20260503200351 | 62 | 277 | 0.0 | 1.7 | 0.00 | 0.00 | 0.00 | 37 | 1014.7 |
| 20260503195351 | 62 | 340 | 1.7 | 6.1 | 0.00 | 0.00 | 0.00 | 38 | 1015.0 |
| 20260503194421 | 61 | 285 | 0.0 | 5.2 | 0.00 | 0.00 | 0.00 | 34 | 1015.0 |
| 20260503193351 | 61 | 294 | 5.2 | 5.2 | 0.00 | 0.00 | 0.00 | 34 | 1015.1 |
| 20260503192351 | 61 | 207 | 1.7 | 2.6 | 0.00 | 0.00 | 0.00 | 38 | 1015.2 |
| 20260503191351 | 61 | 217 | 1.7 | 2.6 | 0.00 | 0.00 | 0.00 | 37 | 1015.3 |
| 20260503190351 | 60 | 181 | 5.2 | 5.2 | 0.00 | 0.00 | 0.00 | 34 | 1015.4 |
| 20260503184351 | 60 | 197 | 2.6 | 7.0 | 0.00 | 0.00 | 0.00 | 38 | 1015.7 |
| 20260503183351 | 61 | 300 | 2.6 | 7.8 | 0.00 | 0.00 | 0.00 | 39 | 1015.7 |
| 20260503182351 | 61 | 297 | 0.9 | 7.8 | 0.00 | 0.00 | 0.00 | 37 | 1015.6 |
| 20260503181351 | 60 | 35 | 3.5 | 5.2 | 0.00 | 0.00 | 0.00 | 38 | 1015.6 |
| 20260503180351 | 60 | 296 | 0.9 | 3.5 | 0.00 | 0.00 | 0.00 | 39 | 1015.8 |
| 20260503175351 | 59 | 339 | 5.2 | 7.8 | 0.00 | 0.00 | 0.00 | 38 | 1015.9 |
| 20260503174351 | 59 | 261 | 2.6 | 4.3 | 0.00 | 0.00 | 0.00 | 37 | 1015.8 |
| 20260503173351 | 58 | 306 | 1.7 | 5.2 | 0.00 | 0.00 | 0.00 | 40 | 1015.9 |
| 20260503172351 | 58 | 233 | 0.0 | 2.6 | 0.00 | 0.00 | 0.00 | 38 | 1016.1 |
| 20260503171351 | 58 | 316 | 1.7 | 2.6 | 0.00 | 0.00 | 0.00 | 42 | 1016.2 |
| 20260503170421 | 58 | 30 | 0.9 | 3.5 | 0.00 | 0.00 | 0.00 | 38 | 1016.3 |
| 20260503150421 | 52 | 321 | 4.3 | 6.1 | 0.00 | 0.00 | 0.00 | 44 | 1016.7 |
| 20260503131352 | 50 | 315 | 0.9 | 7.0 | 0.00 | 0.00 | 0.00 | 51 | 1016.9 |
| 20260503130351 | 49 | 46 | 2.6 | 4.3 | 0.00 | 0.00 | 0.00 | 52 | 1016.6 |
| 20260503110422 | 44 | 286 | 2.6 | 2.6 | 0.00 | 0.00 | 0.00 | 70 | 1015.7 |
| 20260503090352 | 46 | 281 | 0.0 | 2.6 | 0.00 | 0.00 | 0.00 | 66 | 1014.1 |
| 20260503081352 | 47 | 282 | 0.9 | 1.7 | 0.00 | 0.00 | 0.00 | 61 | 1013.8 |
| 20260503080352 | 48 | 283 | 0.9 | 0.9 | 0.00 | 0.00 | 0.00 | 62 | 1013.6 |
| 20260503072422 | 49 | 227 | 0.0 | 0.9 | 0.00 | 0.00 | 0.00 | 60 | 1013.2 |
| 20260503071352 | 49 | 290 | 1.7 | 4.3 | 0.00 | 0.00 | 0.00 | 60 | 1013.2 |
| 20260503070352 | 49 | 302 | 0.0 | 0.0 | 0.00 | 0.00 | 0.00 | 61 | 1013.0 |
| 20260503054352 | 51 | 132 | 0.0 | 0.9 | 0.00 | 0.00 | 0.00 | 58 | 1012.9 |
| 20260503053352 | 52 | 340 | 2.6 | 2.6 | 0.00 | 0.00 | 0.00 | 57 | 1013.0 |
| 20260503052422 | 52 | 197 | 0.9 | 2.6 | 0.00 | 0.00 | 0.00 | 57 | 1013.0 |
| 20260503051352 | 52 | 328 | 0.9 | 7.0 | 0.00 | 0.00 | 0.00 | 56 | 1012.9 |
| 20260503050352 | 53 | 290 | 0.0 | 1.7 | 0.00 | 0.00 | 0.00 | 57 | 1013.0 |
| 20260503045352 | 53 | 256 | 0.0 | 1.7 | 0.00 | 0.00 | 0.00 | 57 | 1012.9 |
| 20260503044452 | 53 | 332 | 1.7 | 2.6 | 0.00 | 0.00 | 0.00 | 56 | 1012.9 |
| 20260503043352 | 53 | 236 | 0.0 | 0.9 | 0.00 | 0.00 | 0.00 | 55 | 1012.8 |
| 20260503042352 | 53 | 286 | 0.0 | 2.6 | 0.00 | 0.00 | 0.00 | 55 | 1012.6 |
| 20260503041352 | 54 | 310 | 0.9 | 0.9 | 0.00 | 0.00 | 0.00 | 54 | 1012.8 |
| 20260503040352 | 54 | 360 | 0.0 | 1.7 | 0.00 | 0.00 | 0.00 | 55 | 1012.6 |
| 20260503035352 | 54 | 279 | 0.0 | 2.6 | 0.00 | 0.00 | 0.00 | 55 | 1012.6 |
| 20260503034352 | 54 | 175 | 0.9 | 1.7 | 0.00 | 0.00 | 0.00 | 57 | 1012.4 |
| 20260503033352 | 53 | 313 | 0.0 | 1.7 | 0.00 | 0.00 | 0.00 | 60 | 1012.3 |
| 20260503032352 | 53 | 20 | 0.0 | 0.0 | 0.00 | 0.00 | 0.00 | 60 | 1012.4 |
| 20260503030352 | 53 | 340 | 0.0 | 0.0 | 0.00 | 0.00 | 0.00 | 62 | 1012.5 |
| 20260503025352 | 53 | 344 | 0.0 | 1.7 | 0.00 | 0.00 | 0.00 | 62 | 1012.5 |
| 20260503024353 | 53 | 5 | 0.0 | 0.0 | 0.00 | 0.00 | 0.00 | 63 | 1012.4 |
| 20260503023352 | 52 | 5 | 0.0 | 0.0 | 0.00 | 0.00 | 0.00 | 65 | 1012.5 |
| 20260503022352 | 52 | 5 | 0.0 | 0.0 | 0.00 | 0.00 | 0.00 | 68 | 1012.5 |
| 20260503021352 | 51 | 5 | 0.0 | 0.0 | 0.00 | 0.00 | 0.00 | 70 | 1012.5 |
| 20260503020352 | 51 | 5 | 0.0 | 0.0 | 0.00 | 0.00 | 0.00 | 75 | 1012.5 |
| 20260503014352 | 52 | 5 | 0.0 | 0.0 | 0.00 | 0.00 | 0.00 | 74 | 1012.4 |
| 20260503012352 | 51 | 5 | 0.0 | 0.0 | 0.00 | 0.00 | 0.00 | 75 | 1012.4 |
| 20260503011352 | 51 | 5 | 0.0 | 0.0 | 0.00 | 0.00 | 0.00 | 74 | 1012.4 |
| 20260503010352 | 52 | 5 | 0.0 | 0.0 | 0.00 | 0.00 | 0.00 | 73 | 1012.2 |
| 20260503005352 | 52 | 5 | 0.0 | 0.0 | 0.00 | 0.00 | 0.00 | 73 | 1012.2 |
| 20260503004352 | 52 | 5 | 0.0 | 0.0 | 0.00 | 0.00 | 0.00 | 72 | 1012.0 |
| 20260503002352 | 52 | 5 | 0.0 | 0.0 | 0.00 | 0.00 | 0.00 | 70 | 1011.5 |
| 20260503001352 | 53 | 5 | 0.0 | 0.0 | 0.00 | 0.00 | 0.00 | 70 | 1011.5 |
| 20260503000352 | 53 | 5 | 0.0 | 0.0 | 0.00 | 0.00 | 0.00 | 69 | 1011.5 |
| 20260502235352 | 54 | 5 | 0.0 | 0.0 | 0.00 | 0.00 | 0.00 | 67 | 1011.6 |
| 20260502234352 | 54 | 5 | 0.0 | 0.0 | 0.00 | 0.00 | 0.00 | 66 | 1011.5 |
| 20260502233352 | 55 | 5 | 0.0 | 0.0 | 0.00 | 0.00 | 0.00 | 62 | 1011.2 |
| 20260502232352 | 55 | 5 | 0.0 | 0.0 | 0.00 | 0.00 | 0.00 | 60 | 1011.2 |